This is the latest recevied weather packets stored in our database for station/object CE4JVU-10. If no packets are shown the sender has not sent any weather packets the latest 10 day(s).
| Time | Temp. | Humidity | Pressure | Rain* | Wind** | Luminosity | Snow |
|---|---|---|---|---|---|---|---|
| 1778207124 | 17.78° C | 52% | 988.9 hPa | - | - | - | - |
| 1778205324 | 17.78° C | 52% | 988.8 hPa | - | - | - | - |
| 1778203523 | 17.78° C | 52% | 988.5 hPa | - | - | - | - |
| 1778201723 | 18.33° C | 52% | 989.2 hPa | - | - | - | - |
| 1778199923 | 17.78° C | 52% | 989.4 hPa | - | - | - | - |
| 1778198123 | 17.78° C | 52% | 989 hPa | - | - | - | - |
| 1778196323 | 18.33° C | 52% | 988.6 hPa | - | - | - | - |
| 1778194522 | 18.89° C | 52% | 988.4 hPa | - | - | - | - |
| 1778192724 | 18.89° C | 51% | 988.4 hPa | - | - | - | - |
| 1778190924 | 18.89° C | 52% | 988.6 hPa | - | - | - | - |
| 1778189124 | 18.89° C | 51% | 988.7 hPa | - | - | - | - |
| 1778187324 | 19.44° C | 50% | 988.7 hPa | - | - | - | - |
| 1778185523 | 20° C | 50% | 988.6 hPa | - | - | - | - |
| 1778183723 | 20° C | 50% | 988.4 hPa | - | - | - | - |
| 1778181923 | 20° C | 50% | 988.6 hPa | - | - | - | - |
| 1778180122 | 20° C | 51% | 988.8 hPa | - | - | - | - |
| 1778178322 | 19.44° C | 51% | 988.8 hPa | - | - | - | - |
| 1778176522 | 18.89° C | 53% | 989 hPa | - | - | - | - |
| 1778174722 | 18.89° C | 53% | 989.1 hPa | - | - | - | - |
| 1778172922 | 19.44° C | 55% | 990.1 hPa | - | - | - | - |
| 1778171122 | 17.78° C | 56% | 990.5 hPa | - | - | - | - |
| 1778169322 | 17.78° C | 57% | 990.8 hPa | - | - | - | - |
| 1778167522 | 17.78° C | 58% | 990.7 hPa | - | - | - | - |
| 1778165722 | 17.22° C | 61% | 990.5 hPa | - | - | - | - |
| 1778163922 | 17.22° C | 61% | 990.6 hPa | - | - | - | - |
* Rain since midnight (hover to see other rain measurements)
** Current wind speed in m/s (hover to see current wind gust speed)